Change the Weather History Date:

Sunday, March 4, 2012

  Actual Average Record
Temperature  
Mean Temperature 36 °F 33 °F  
Max Temperature 50 °F 43 °F 75 °F (1918)
Min Temperature 22 °F 22 °F -20 °F (1960)
Degree Days  
Heating Degree Days 29 32  
Month to date heating degree days 125 132  
Since 1 July heating degree days 4735 5225  
Cooling Degree Days 0 0  
Month to date cooling degree days 0 0  
Year to date cooling degree days 0 0  
Moisture  
Dew Point 23 °F    
Average Humidity 63    
Maximum Humidity 88    
Minimum Humidity 37    
Precipitation  
Precipitation 0.00 in 0.04 in 0.76 in (1959)
Month to date precipitation T 0.15  
Year to date precipitation 1.91 1.50  
Snow  
Snow 0.00 in 0.10 in - ()
Month to date snowfall T 0.7  
Since 1 July snowfall 15.3 23.5  
Snow Depth 0.00 in    
Sea Level Pressure  
Sea Level Pressure 29.99 in    
Wind  
Wind Speed 13 mph (NW)    
Max Wind Speed 41 mph    
Max Gust Speed 53 mph    
Visibility 10 miles    
Events      
T = Trace of Precipitation, MM = Missing Value Source: NWS Daily Summary

Daily Weather History Graph

Daily Weather History Graph

Search for Another Location

Airport or City:

Trip Planner

Search our weather history database for the weather conditions in past years. The results will help you decide how hot, cold, wet, or windy it might be!

Date:

Astronomy

Mar. 04, 2012 Rise Set
Actual Time 6:59 AM CST 6:24 PM CST
Civil Twilight 6:31 AM CST 6:52 PM CST
Nautical Twilight 5:58 AM CST 7:24 PM CST
Astronomical Twilight 5:26 AM CST 7:56 PM CST
Moon 2:34 PM CST (3/4) 4:23 AM CST (3/4)
Length of Visible Light 12h 20m
Length of Day
11h 25m
Waxing Gibbous, 84% of the Moon is Illuminated
Mar 4
Waxing Gibbous
Mar 8
Full
Mar 14
Last Quarter
Mar 22
New
Mar 30
First Quarter

Hourly Weather History & Observations

Time (CST) Temp. Windchill Dew Point Humidity Pressure Visibility Wind Dir Wind Speed Gust Speed Precip Events Conditions
12:56 AM 28.0 °F 24.2 °F 21.0 °F 75% 29.91 in 10.0 mi SE 3.5 mph - N/A   Overcast
1:56 AM 28.9 °F - 21.9 °F 75% 29.91 in 10.0 mi Calm Calm - N/A   Overcast
2:56 AM 28.9 °F 25.2 °F 21.9 °F 75% 29.89 in 10.0 mi ENE 3.5 mph - N/A   Overcast
3:56 AM 25.0 °F 19.3 °F 21.0 °F 85% 29.85 in 10.0 mi ESE 4.6 mph - N/A   Partly Cloudy
4:56 AM 25.0 °F 20.7 °F 19.9 °F 81% 29.84 in 10.0 mi East 3.5 mph - N/A   Mostly Cloudy
5:56 AM 25.0 °F 17.1 °F 21.0 °F 85% 29.84 in 10.0 mi East 6.9 mph - N/A   Clear
6:56 AM 26.1 °F 21.9 °F 21.9 °F 84% 29.85 in 10.0 mi SSE 3.5 mph - N/A   Mostly Cloudy
7:56 AM 28.0 °F 22.8 °F 23.0 °F 81% 29.85 in 10.0 mi South 4.6 mph - N/A   Mostly Cloudy
8:56 AM 35.1 °F 32.2 °F 27.0 °F 72% 29.84 in 10.0 mi West 3.5 mph - N/A   Partly Cloudy
9:56 AM 39.9 °F 33.4 °F 28.9 °F 65% 29.87 in 10.0 mi WNW 10.4 mph - N/A   Mostly Cloudy
10:56 AM 46.9 °F - 32.0 °F 56% 29.87 in 10.0 mi WNW 18.4 mph 28.8 mph N/A   Partly Cloudy
11:56 AM 48.9 °F - 33.1 °F 54% 29.89 in 10.0 mi NW 24.2 mph 43.7 mph N/A   Mostly Cloudy
12:56 PM 48.9 °F - 30.9 °F 50% 29.91 in 10.0 mi NNW 33.4 mph 42.6 mph N/A   Mostly Cloudy
1:56 PM 46.0 °F 35.5 °F 26.1 °F 46% 29.94 in 10.0 mi NNW 39.1 mph 46.0 mph N/A   Overcast
2:56 PM 45.0 °F 35.2 °F 23.0 °F 42% 29.98 in 10.0 mi NNW 29.9 mph 48.3 mph N/A   Mostly Cloudy
3:56 PM 44.1 °F 33.5 °F 19.9 °F 38% 30.03 in 10.0 mi NW 33.4 mph 51.8 mph N/A   Clear
4:56 PM 41.0 °F 29.8 °F 21.0 °F 45% 30.09 in 10.0 mi NNW 29.9 mph 39.1 mph N/A   Clear
5:56 PM 37.9 °F 27.9 °F 21.0 °F 51% 30.12 in 10.0 mi NNW 19.6 mph 36.8 mph N/A   Clear
6:56 PM 34.0 °F 25.0 °F 21.0 °F 59% 30.17 in 10.0 mi NNW 12.7 mph - N/A   Clear
7:56 PM 28.9 °F 21.1 °F 21.0 °F 72% 30.19 in 10.0 mi NNW 8.1 mph - N/A   Clear
8:56 PM 30.0 °F 25.2 °F 21.0 °F 69% 30.19 in 10.0 mi NW 4.6 mph - N/A   Clear
9:56 PM 28.0 °F 21.7 °F 21.0 °F 75% 30.21 in 10.0 mi NW 5.8 mph - N/A   Clear
10:56 PM 24.1 °F 18.2 °F 19.0 °F 81% 30.21 in 10.0 mi WSW 4.6 mph - N/A   Clear
11:56 PM 24.1 °F 17.0 °F 18.0 °F 77% 30.21 in 10.0 mi SW 5.8 mph - N/A   Clear